{"data":{"norad_id":56018,"epoch":"2026-05-24T22:30:57.969216Z","epoch_age_seconds":73696,"freshness":"FRESH","line1":"1 56018U 23042AJ  26144.93817094  .00000731  00000+0  36108-4 0  9991","line2":"2 56018  43.0021 334.8744 0001595 254.2430 105.8246 15.27577794174692","mean_motion":15.27577794,"eccentricity":0.0001595,"inclination_deg":43.0021,"raan_deg":334.8744,"arg_perigee_deg":254.243,"mean_anomaly_deg":105.8246,"bstar":3.6108e-5,"rev_number":17469,"period_min":94.266884845801,"perigee_km":481.9613413693,"apogee_km":484.15006184111,"semimajor_km":6861.1927016051995,"source":"CELESTRAK","updated_at":"2026-05-25T13:38:17.928618Z"}}